Regional Weather Roundup
Issued by NWS Cleveland, OH

Home | Current Version | Previous Version | Text Only | Print | Product List | Glossary Off
Versions: 1 2 3 4 5 6 7 8 9 10 11 12 13 14 15 16 17 18 19 20 21 22 23 24 25 26 27 28 29 30 31 32 33 34 35 36 37 38 39 40 41 42 43 44 45 46 47 48 49 50

000
ASUS41 KCLE 020202
RWRCLE
OHIO REGIONAL WEATHER ROUNDUP
NATIONAL WEATHER SERVICE CLEVELAND, OH
1000 PM EDT WED APR 01 2015

NOTE: "FAIR" INDICATES FEW OR NO CLOUDS BELOW 12,000 FEET WITH NO
SIGNIFICANT WEATHER AND/OR OBSTRUCTIONS TO VISIBILITY.

OHZ001>008-015>018-024>027-034-035-043-044-020300-
   NORTHWEST OHIO

CITY           SKY/WX    TMP DP  RH WIND       PRES   REMARKS
DEFIANCE       CLEAR     58  34  40 S9        30.02S
FINDLAY        CLEAR     49  34  56 S8        30.05R
TOLEDO EXPRESS CLEAR     54  34  46 S6        30.02S
TOLEDO EXEC    CLEAR     47  36  65 S8        30.03F
LIMA           CLEAR     50  33  52 S7        30.05S
$$

OHZ009>014-019>023-028>033-038-089-020300-
   NORTHEAST OHIO

CITY           SKY/WX    TMP DP  RH WIND       PRES   REMARKS
CLE-HOPKINS    PTCLDY    49  33  54 S7        30.10R
CLE-LAKEFRONT  CLEAR     53  34  48 S9        30.07R
CUY CO. ARPT   CLEAR     50  34  53 S9        30.09R
LORAIN-ELYRIA  CLEAR     51  34  52 S8        30.08R
ASHTABULA      CLEAR     40  33  76 SE5       30.09F
AKRON-CANTON   CLEAR     48  31  51 S9        30.11R
WOOSTER        CLEAR     47  34  60 S6        30.10S
MANSFIELD      CLEAR     50  34  54 S10       30.09R
YOUNGSTOWN     CLEAR     48  30  49 S6        30.11R
$$

OHZ042-051>053-060>062-070>072-077>081-020300-
  SOUTHWEST OHIO

CITY           SKY/WX    TMP DP  RH WIND       PRES   REMARKS
CINC-COVINGTON MOCLDY    53  29  39 S6        30.08S
CINC-LUNKEN    PTCLDY    49  37  63 CALM      30.09S
HAMILTON       PTCLDY    48  33  56 E3        30.08S
DAYTON         PTCLDY    56  31  38 S9        30.08S
WRIGHT-PAT AFB CLEAR     55  30  38 SE5       30.08R
DAYTON GENERAL PTCLDY    54  29  38 SE7       30.08R
WILMINGTON     PTCLDY    49  32  52 SE5       30.09R
$$

OHZ036-037-039>041-045>050-054>059-063>069-073>076-082>088-020300-
  CENTRAL AND SOUTHEAST OHIO

CITY           SKY/WX    TMP DP  RH WIND       PRES   REMARKS
COLUMBUS       PTCLDY    53  31  42 SE6       30.10R
OSU AIRPORT    CLEAR     55  30  38 SE6       30.09S
BOLTON FIELD   NOT AVBL
RICKENBACK AFB CLEAR     47  32  56 SE8       30.09F
NEWARK         CLEAR     45  35  68 CALM      30.11R
MARION         CLEAR     51  32  48 S9        30.08R
LANCASTER      CLEAR     44  36  73 CALM      30.12R
ZANESVILLE     CLEAR     47  30  51 SE5       30.12S
NEW PHILLY     CLEAR     45  32  60 SE3       30.13R
$$


USA.gov is the U.S. government's official web portal to all federal, state and local government web resources and services.